Time,TemperatureF,DewpointF,PressureIn,WindDirection,WindDirectionDegrees,WindSpeedMPH,WindSpeedGustMPH,Humidity,HourlyPrecipIn,Conditions,Clouds,dailyrainin,SoftwareType,DateUTC
2013-01-14 00:02:00,31.6,28.5,30.28,North,349,0.0,0.2,88,0.00,RA,,0.00,WeatherDisplay:10.37,2013-01-14 06:02:00,
2013-01-14 00:07:00,31.5,28.4,30.28,North,350,3.5,3.5,88,0.00,RA,,0.00,WeatherDisplay:10.37,2013-01-14 06:07:00,
2013-01-14 00:12:00,31.4,28.3,30.28,NNW,337,2.3,2.3,88,0.00,CLR,,0.00,WeatherDisplay:10.37,2013-01-14 06:12:00,
2013-01-14 00:17:00,31.3,28.2,30.29,NNW,340,2.3,2.3,88,0.00,CLR,,0.00,WeatherDisplay:10.37,2013-01-14 06:17:00,
2013-01-14 00:22:00,31.2,28.1,30.29,NNW,333,3.5,3.5,88,0.00,CLR,,0.00,WeatherDisplay:10.37,2013-01-14 06:22:00,
2013-01-14 00:27:00,31.2,28.1,30.29,SE,142,5.8,5.8,88,0.00,CLR,,0.00,WeatherDisplay:10.37,2013-01-14 06:27:00,
2013-01-14 00:32:00,31.1,28.0,30.29,NNW,346,3.5,3.5,88,0.00,CLR,,0.00,WeatherDisplay:10.37,2013-01-14 06:32:00,
2013-01-14 00:37:00,31.1,28.0,30.29,NE,49,5.0,5.0,88,0.00,CLR,,0.00,WeatherDisplay:10.37,2013-01-14 06:37:00,
2013-01-14 00:42:00,31.0,27.9,30.28,NNW,331,2.3,2.3,88,0.00,CLR,,0.00,WeatherDisplay:10.37,2013-01-14 06:42:00,
2013-01-14 00:47:00,30.9,27.8,30.28,WNW,300,2.0,2.0,88,0.00,CLR,,0.00,WeatherDisplay:10.37,2013-01-14 06:47:00,
2013-01-14 00:52:00,30.8,27.7,30.28,NNW,348,7.0,7.0,88,0.00,CLR,,0.00,WeatherDisplay:10.37,2013-01-14 06:52:00,
2013-01-14 00:57:00,30.7,27.3,30.28,North,350,1.1,1.1,87,0.00,CLR,,0.00,WeatherDisplay:10.37,2013-01-14 06:57:00,
2013-01-14 01:02:00,30.6,27.2,30.28,North,355,6.9,6.9,87,0.00,CLR,,0.00,WeatherDisplay:10.37,2013-01-14 07:02:00,
2013-01-14 01:07:00,30.5,27.1,30.28,NNW,345,3.5,3.5,87,0.00,CLR,,0.00,WeatherDisplay:10.37,2013-01-14 07:07:00,
2013-01-14 01:12:00,30.4,27.0,30.29,North,355,3.5,3.5,87,0.00,CLR,,0.00,WeatherDisplay:10.37,2013-01-14 07:12:00,
2013-01-14 01:17:00,30.4,27.0,30.29,NNW,347,2.3,2.3,87,0.00,CLR,,0.00,WeatherDisplay:10.37,2013-01-14 07:17:00,
2013-01-14 01:22:00,30.3,26.9,30.30,North,355,3.5,3.5,87,0.00,CLR,,0.00,WeatherDisplay:10.37,2013-01-14 07:22:00,
2013-01-14 01:27:00,30.3,27.2,30.29,North,355,3.5,3.5,88,0.00,CLR,,0.00,WeatherDisplay:10.37,2013-01-14 07:27:00,
2013-01-14 01:32:00,30.3,27.2,30.29,NNW,336,4.6,4.6,88,0.00,CLR,,0.00,WeatherDisplay:10.37,2013-01-14 07:32:00,
2013-01-14 01:37:00,30.2,27.1,30.30,South,183,3.5,3.5,88,0.00,CLR,,0.00,WeatherDisplay:10.37,2013-01-14 07:37:00,
2013-01-14 01:42:00,30.2,27.1,30.30,NNW,336,3.5,3.5,88,0.00,CLR,,0.00,WeatherDisplay:10.37,2013-01-14 07:42:00,
2013-01-14 01:47:00,30.2,27.1,30.31,NNW,342,3.5,3.5,88,0.00,CLR,,0.00,WeatherDisplay:10.37,2013-01-14 07:47:00,
2013-01-14 01:52:00,30.1,27.0,30.31,NNW,337,1.1,0.0,88,0.00,CLR,,0.00,WeatherDisplay:10.37,2013-01-14 07:52:00,
2013-01-14 01:57:00,30.1,27.0,30.31,NW,322,3.5,3.5,88,0.00,CLR,,0.00,WeatherDisplay:10.37,2013-01-14 07:57:00,
2013-01-14 02:02:00,30.1,27.0,30.31,NW,310,3.5,3.5,88,0.00,CLR,,0.00,WeatherDisplay:10.37,2013-01-14 08:02:00,
2013-01-14 02:07:00,30.0,26.9,30.32,West,279,3.0,3.0,88,0.00,CLR,,0.00,WeatherDisplay:10.37,2013-01-14 08:07:00,
2013-01-14 02:12:00,29.8,26.4,30.32,North,360,5.0,5.0,87,0.00,CLR,,0.00,WeatherDisplay:10.37,2013-01-14 08:12:00,
2013-01-14 02:17:00,29.6,26.2,30.31,North,355,9.2,9.2,87,0.00,CLR,,0.00,WeatherDisplay:10.37,2013-01-14 08:17:00,
2013-01-14 02:22:00,29.4,25.7,30.32,NNW,342,8.1,8.1,86,0.00,CLR,,0.00,WeatherDisplay:10.37,2013-01-14 08:22:00,
2013-01-14 02:27:00,29.3,25.6,30.32,NW,310,5.0,5.0,86,0.00,CLR,,0.00,WeatherDisplay:10.37,2013-01-14 08:27:00,
2013-01-14 02:32:00,29.2,25.5,30.32,West,273,2.3,2.3,86,0.00,CLR,,0.00,WeatherDisplay:10.37,2013-01-14 08:32:00,
2013-01-14 02:37:00,29.2,25.5,30.32,NW,312,6.0,6.0,86,0.00,CLR,,0.00,WeatherDisplay:10.37,2013-01-14 08:37:00,
2013-01-14 02:42:00,29.0,25.3,30.32,NE,40,8.1,8.1,86,0.00,CLR,,0.00,WeatherDisplay:10.37,2013-01-14 08:42:00,
2013-01-14 02:47:00,28.9,25.2,30.33,NNW,330,6.9,6.9,86,0.00,CLR,,0.00,WeatherDisplay:10.37,2013-01-14 08:47:00,
2013-01-14 02:52:00,28.9,25.2,30.32,NNW,344,4.6,4.6,86,0.00,CLR,,0.00,WeatherDisplay:10.37,2013-01-14 08:52:00,
2013-01-14 02:57:00,28.8,24.9,30.32,NNW,333,4.6,4.6,85,0.00,CLR,,0.00,WeatherDisplay:10.37,2013-01-14 08:57:00,
2013-01-14 03:02:00,28.8,24.9,30.32,North,355,4.0,4.0,85,0.00,CLR,,0.00,WeatherDisplay:10.37,2013-01-14 09:02:00,
2013-01-14 03:07:00,28.8,25.1,30.32,West,279,4.6,4.6,86,0.00,CLR,,0.00,WeatherDisplay:10.37,2013-01-14 09:07:00,
2013-01-14 03:12:00,28.9,25.2,30.32,North,350,3.5,3.5,86,0.00,CLR,,0.00,WeatherDisplay:10.37,2013-01-14 09:12:00,
2013-01-14 03:17:00,28.9,25.2,30.31,NNW,336,3.5,3.5,86,0.00,CLR,,0.00,WeatherDisplay:10.37,2013-01-14 09:17:00,
2013-01-14 03:22:00,28.9,25.2,30.32,North,350,5.0,5.0,86,0.00,CLR,,0.00,WeatherDisplay:10.37,2013-01-14 09:22:00,
2013-01-14 03:27:00,28.9,25.0,30.32,NNE,22,6.9,6.9,85,0.00,CLR,,0.00,WeatherDisplay:10.37,2013-01-14 09:27:00,
2013-01-14 03:32:00,28.9,25.0,30.31,NW,323,4.6,4.6,85,0.00,CLR,,0.00,WeatherDisplay:10.37,2013-01-14 09:32:00,
2013-01-14 03:38:00,28.8,24.9,30.32,North,355,4.6,4.6,85,0.00,CLR,,0.00,WeatherDisplay:10.37,2013-01-14 09:38:00,
2013-01-14 03:43:00,28.9,25.2,30.32,NW,314,3.5,3.5,86,0.00,CLR,,0.00,WeatherDisplay:10.37,2013-01-14 09:43:00,
2013-01-14 03:48:00,29.0,25.3,30.31,NNW,345,9.2,9.2,86,0.00,CLR,,0.00,WeatherDisplay:10.37,2013-01-14 09:48:00,
2013-01-14 03:53:00,28.9,25.0,30.31,NE,38,5.8,5.8,85,0.00,CLR,,0.00,WeatherDisplay:10.37,2013-01-14 09:53:00,
2013-01-14 03:58:00,28.9,25.2,30.32,NNW,347,4.6,4.6,86,0.00,CLR,,0.00,WeatherDisplay:10.37,2013-01-14 09:58:00,
2013-01-14 04:03:00,28.9,25.0,30.31,North,355,3.5,3.5,85,0.00,CLR,,0.00,WeatherDisplay:10.37,2013-01-14 10:03:00,
2013-01-14 04:08:00,28.9,25.2,30.31,NW,325,3.5,3.5,86,0.00,CLR,,0.00,WeatherDisplay:10.37,2013-01-14 10:08:00,
2013-01-14 04:13:00,28.9,25.0,30.31,NNW,348,4.6,4.6,85,0.00,CLR,,0.00,WeatherDisplay:10.37,2013-01-14 10:13:00,
2013-01-14 04:18:00,28.8,24.9,30.31,North,355,4.6,4.6,85,0.00,CLR,,0.00,WeatherDisplay:10.37,2013-01-14 10:18:00,
2013-01-14 04:23:00,28.8,24.9,30.32,NNW,334,4.6,4.6,85,0.00,CLR,,0.00,WeatherDisplay:10.37,2013-01-14 10:23:00,
2013-01-14 04:28:00,28.8,24.9,30.31,North,355,5.8,5.8,85,0.00,CLR,,0.00,WeatherDisplay:10.37,2013-01-14 10:28:00,
2013-01-14 04:33:00,28.8,24.9,30.31,North,350,3.5,3.5,85,0.00,CLR,,0.00,WeatherDisplay:10.37,2013-01-14 10:33:00,
2013-01-14 04:38:00,28.8,25.1,30.32,NNW,344,3.5,3.5,86,0.00,CLR,,0.00,WeatherDisplay:10.37,2013-01-14 10:38:00,
2013-01-14 04:43:00,28.8,25.1,30.32,NNW,338,3.0,3.0,86,0.00,CLR,,0.00,WeatherDisplay:10.37,2013-01-14 10:43:00,
2013-01-14 04:48:00,28.9,25.2,30.32,North,5,7.0,7.0,86,0.00,CLR,,0.00,WeatherDisplay:10.37,2013-01-14 10:48:00,
2013-01-14 04:53:00,28.9,25.2,30.32,NNW,330,3.5,3.5,86,0.00,CLR,,0.00,WeatherDisplay:10.37,2013-01-14 10:53:00,
2013-01-14 04:58:00,28.9,25.2,30.32,NNW,346,3.5,3.5,86,0.00,CLR,,0.00,WeatherDisplay:10.37,2013-01-14 10:58:00,
2013-01-14 05:03:00,29.0,25.3,30.32,NNW,348,3.5,3.5,86,0.00,CLR,,0.00,WeatherDisplay:10.37,2013-01-14 11:03:00,
2013-01-14 05:08:00,29.0,25.3,30.32,NNW,336,3.5,3.5,86,0.00,CLR,,0.00,WeatherDisplay:10.37,2013-01-14 11:08:00,
2013-01-14 05:13:00,29.0,25.3,30.32,NNW,337,3.5,3.5,86,0.00,CLR,,0.00,WeatherDisplay:10.37,2013-01-14 11:13:00,
2013-01-14 05:18:00,29.0,25.3,30.32,NNW,345,3.5,3.5,86,0.00,CLR,,0.00,WeatherDisplay:10.37,2013-01-14 11:18:00,
2013-01-14 05:23:00,29.0,25.3,30.32,North,349,5.8,5.8,86,0.00,CLR,,0.00,WeatherDisplay:10.37,2013-01-14 11:23:00,
2013-01-14 05:28:00,29.0,25.3,30.31,North,355,2.3,2.3,86,0.00,CLR,,0.00,WeatherDisplay:10.37,2013-01-14 11:28:00,
2013-01-14 05:33:00,29.0,25.3,30.31,NNE,15,4.6,4.6,86,0.00,CLR,,0.00,WeatherDisplay:10.37,2013-01-14 11:33:00,
2013-01-14 05:38:00,29.0,25.3,30.31,NNW,339,5.8,5.8,86,0.00,CLR,,0.00,WeatherDisplay:10.37,2013-01-14 11:38:00,
2013-01-14 05:43:00,29.1,25.4,30.31,NW,312,3.5,3.5,86,0.00,CLR,,0.00,WeatherDisplay:10.37,2013-01-14 11:43:00,
2013-01-14 05:48:00,29.1,25.4,30.30,NNW,348,6.9,6.9,86,0.00,CLR,,0.00,WeatherDisplay:10.37,2013-01-14 11:48:00,
2013-01-14 05:53:00,28.8,25.1,30.30,West,276,4.6,4.6,86,0.00,CLR,,0.00,WeatherDisplay:10.37,2013-01-14 11:53:00,
2013-01-14 05:58:00,28.6,24.7,30.30,NNW,345,5.8,5.8,85,0.00,CLR,,0.00,WeatherDisplay:10.37,2013-01-14 11:58:00,
2013-01-14 06:03:00,28.3,24.4,30.30,WSW,242,5.0,5.0,85,0.00,CLR,,0.00,WeatherDisplay:10.37,2013-01-14 12:03:00,
2013-01-14 06:08:00,28.1,24.2,30.30,North,355,4.6,4.6,85,0.00,CLR,,0.00,WeatherDisplay:10.37,2013-01-14 12:08:00,
2013-01-14 06:13:00,27.9,24.0,30.30,SSE,153,6.9,6.9,85,0.00,CLR,,0.00,WeatherDisplay:10.37,2013-01-14 12:13:00,
2013-01-14 06:18:00,27.8,23.9,30.30,North,9,6.9,6.9,85,0.00,CLR,,0.00,WeatherDisplay:10.37,2013-01-14 12:18:00,
2013-01-14 06:23:00,27.7,23.8,30.30,North,355,4.6,4.6,85,0.00,CLR,,0.00,WeatherDisplay:10.37,2013-01-14 12:23:00,
2013-01-14 06:28:00,27.6,23.7,30.29,NNW,342,3.5,3.5,85,0.00,CLR,,0.00,WeatherDisplay:10.37,2013-01-14 12:28:00,
2013-01-14 06:33:00,27.6,23.7,30.30,North,355,3.5,3.5,85,0.00,CLR,,0.00,WeatherDisplay:10.37,2013-01-14 12:33:00,
2013-01-14 06:38:00,27.7,24.1,30.30,NNW,346,3.5,3.5,86,0.00,CLR,,0.00,WeatherDisplay:10.37,2013-01-14 12:38:00,
2013-01-14 06:43:00,27.7,24.1,30.29,WSW,241,3.5,3.5,86,0.00,CLR,,0.00,WeatherDisplay:10.37,2013-01-14 12:43:00,
2013-01-14 06:48:00,27.7,24.1,30.29,NW,323,11.5,11.5,86,0.00,CLR,,0.00,WeatherDisplay:10.37,2013-01-14 12:48:00,
2013-01-14 06:53:00,27.6,23.7,30.29,NW,317,4.0,4.0,85,0.00,CLR,,0.00,WeatherDisplay:10.37,2013-01-14 12:53:00,
2013-01-14 06:58:00,27.6,23.7,30.29,NNW,331,5.8,5.8,85,0.00,CLR,,0.00,WeatherDisplay:10.37,2013-01-14 12:58:00,
2013-01-14 07:03:00,27.5,23.9,30.29,NNW,341,4.6,4.6,86,0.00,CLR,,0.00,WeatherDisplay:10.37,2013-01-14 13:03:00,
2013-01-14 07:08:00,27.6,24.0,30.28,North,355,2.0,2.0,86,0.00,CLR,,0.00,WeatherDisplay:10.37,2013-01-14 13:08:00,
2013-01-14 07:13:00,27.7,24.1,30.29,NNW,347,3.5,3.5,86,0.00,CLR,,0.00,WeatherDisplay:10.37,2013-01-14 13:13:00,
2013-01-14 07:18:00,27.8,24.2,30.30,NNW,330,9.2,9.2,86,0.00,CLR,,0.00,WeatherDisplay:10.37,2013-01-14 13:18:00,
2013-01-14 07:23:00,27.8,24.2,30.30,NNW,346,9.2,9.2,86,0.00,CLR,,0.00,WeatherDisplay:10.37,2013-01-14 13:23:00,
2013-01-14 07:28:00,27.8,24.2,30.30,NW,306,4.6,4.6,86,0.00,CLR,,0.00,WeatherDisplay:10.37,2013-01-14 13:28:00,
2013-01-14 07:33:00,27.7,24.1,30.31,SE,134,3.5,3.5,86,0.00,CLR,,0.00,WeatherDisplay:10.37,2013-01-14 13:33:00,
2013-01-14 07:38:00,27.7,24.1,30.31,NNW,348,3.5,3.5,86,0.00,CLR,,0.00,WeatherDisplay:10.37,2013-01-14 13:38:00,
2013-01-14 07:43:00,27.8,23.9,30.32,North,355,5.8,5.8,85,0.00,CLR,,0.00,WeatherDisplay:10.37,2013-01-14 13:43:00,
2013-01-14 07:48:00,27.8,24.2,30.32,WSW,251,8.1,8.1,86,0.00,CLR,,0.00,WeatherDisplay:10.37,2013-01-14 13:48:00,
2013-01-14 07:53:00,27.8,24.2,30.32,NW,318,3.5,3.5,86,0.00,CLR,,0.00,WeatherDisplay:10.37,2013-01-14 13:53:00,
2013-01-14 07:58:00,28.0,24.1,30.31,WNW,303,3.5,3.5,85,0.00,CLR,,0.00,WeatherDisplay:10.37,2013-01-14 13:58:00,
2013-01-14 08:03:00,28.0,26.0,30.31,East,96,1.1,1.1,92,0.00,CLR,,0.00,WeatherDisplay:10.37,2013-01-14 14:03:00,
2013-01-14 08:08:00,28.1,24.5,30.33,NW,326,2.0,2.0,86,0.00,CLR,,0.00,WeatherDisplay:10.37,2013-01-14 14:08:00,
2013-01-14 08:13:00,28.2,24.3,30.33,North,355,6.9,6.9,85,0.00,CLR,,0.00,WeatherDisplay:10.37,2013-01-14 14:13:00,
2013-01-14 08:18:00,28.2,24.3,30.33,NNW,340,11.5,11.5,85,0.00,CLR,,0.00,WeatherDisplay:10.37,2013-01-14 14:18:00,
2013-01-14 08:23:00,28.2,24.3,30.34,NW,321,3.5,3.5,85,0.00,CLR,,0.00,WeatherDisplay:10.37,2013-01-14 14:23:00,
2013-01-14 08:28:00,28.2,24.3,30.34,NW,311,3.5,3.5,85,0.00,CLR,,0.00,WeatherDisplay:10.37,2013-01-14 14:28:00,
2013-01-14 08:33:00,28.4,24.5,30.35,WNW,298,3.5,3.5,85,0.00,CLR,,0.00,WeatherDisplay:10.37,2013-01-14 14:33:00,
2013-01-14 08:38:00,28.6,24.7,30.36,WNW,292,1.1,1.1,85,0.00,CLR,,0.00,WeatherDisplay:10.37,2013-01-14 14:38:00,
2013-01-14 08:43:00,28.8,24.9,30.36,WNW,295,0.0,0.0,85,0.00,CLR,,0.00,WeatherDisplay:10.37,2013-01-14 14:43:00,
2013-01-14 08:48:00,29.0,25.1,30.36,North,355,2.3,2.3,85,0.00,CLR,,0.00,WeatherDisplay:10.37,2013-01-14 14:48:00,
2013-01-14 08:53:00,29.2,25.3,30.37,NNW,342,6.0,6.0,85,0.00,CLR,,0.00,WeatherDisplay:10.37,2013-01-14 14:53:00,
2013-01-14 08:58:00,29.1,24.9,30.36,North,350,4.6,4.6,84,0.00,CLR,,0.00,WeatherDisplay:10.37,2013-01-14 14:58:00,
2013-01-14 09:03:00,29.2,25.0,30.36,North,11,3.5,3.5,84,0.00,CLR,,0.00,WeatherDisplay:10.37,2013-01-14 15:03:00,
2013-01-14 09:08:00,29.1,24.9,30.36,WNW,282,3.5,3.5,84,0.00,CLR,,0.00,WeatherDisplay:10.37,2013-01-14 15:08:00,
2013-01-14 09:13:00,29.0,24.8,30.36,West,266,3.5,3.5,84,0.00,CLR,,0.00,WeatherDisplay:10.37,2013-01-14 15:13:00,
2013-01-14 09:18:00,29.1,24.6,30.36,NNW,333,6.9,6.9,83,0.00,CLR,,0.00,WeatherDisplay:10.37,2013-01-14 15:18:00,
2013-01-14 09:23:00,29.0,24.5,30.35,NNW,334,8.1,8.1,83,0.00,CLR,,0.00,WeatherDisplay:10.37,2013-01-14 15:23:00,
2013-01-14 09:28:00,29.0,24.5,30.36,NNW,346,5.0,5.0,83,0.00,CLR,,0.00,WeatherDisplay:10.37,2013-01-14 15:28:00,
2013-01-14 09:33:00,29.0,24.5,30.36,NNW,338,5.0,5.0,83,0.00,CLR,,0.00,WeatherDisplay:10.37,2013-01-14 15:33:00,
2013-01-14 09:38:00,29.2,24.7,30.35,North,360,5.0,5.0,83,0.00,CLR,,0.00,WeatherDisplay:10.37,2013-01-14 15:38:00,
2013-01-14 09:43:00,29.4,24.9,30.36,North,350,4.6,4.6,83,0.00,CLR,,0.00,WeatherDisplay:10.37,2013-01-14 15:43:00,
2013-01-14 09:48:00,29.6,25.1,30.36,NNE,27,4.6,4.6,83,0.00,CLR,,0.00,WeatherDisplay:10.37,2013-01-14 15:48:00,
2013-01-14 09:53:00,29.8,25.3,30.37,NNW,344,3.5,3.5,83,0.00,CLR,,0.00,WeatherDisplay:10.37,2013-01-14 15:53:00,
2013-01-14 09:58:00,30.1,25.6,30.34,NNW,345,6.9,6.9,83,0.00,CLR,,0.00,WeatherDisplay:10.37,2013-01-14 15:58:00,
2013-01-14 10:03:00,30.1,25.6,30.35,NNW,341,4.6,4.6,83,0.00,CLR,,0.00,WeatherDisplay:10.37,2013-01-14 16:03:00,
2013-01-14 10:08:00,30.2,25.9,30.33,WNW,303,2.3,2.4,84,0.00,CLR,,0.00,WeatherDisplay:10.37,2013-01-14 16:08:00,
2013-01-14 10:13:00,30.3,25.8,30.34,North,350,5.8,5.8,83,0.00,CLR,,0.00,WeatherDisplay:10.37,2013-01-14 16:13:00,
2013-01-14 10:18:00,30.3,26.0,30.32,NNW,329,3.5,3.9,84,0.00,CLR,,0.00,WeatherDisplay:10.37,2013-01-14 16:18:00,
2013-01-14 10:23:00,30.1,25.6,30.31,NNW,334,4.6,4.6,83,0.00,CLR,,0.00,WeatherDisplay:10.37,2013-01-14 16:23:00,
2013-01-14 10:29:00,29.9,25.4,30.29,NW,325,6.9,6.9,83,0.00,CLR,,0.00,WeatherDisplay:10.37,2013-01-14 16:29:00,
2013-01-14 10:34:00,29.7,25.2,30.31,NW,323,4.6,4.6,83,0.00,CLR,,0.00,WeatherDisplay:10.37,2013-01-14 16:34:00,
2013-01-14 10:39:00,29.5,25.0,30.33,North,350,3.5,3.5,83,0.00,CLR,,0.00,WeatherDisplay:10.37,2013-01-14 16:39:00,
2013-01-14 10:44:00,29.4,24.9,30.35,WNW,292,3.0,3.0,83,0.00,CLR,,0.00,WeatherDisplay:10.37,2013-01-14 16:44:00,
2013-01-14 10:49:00,29.2,24.7,30.40,NNW,346,8.1,8.1,83,0.00,CLR,,0.00,WeatherDisplay:10.37,2013-01-14 16:49:00,
2013-01-14 10:54:00,29.0,24.5,30.41,WNW,290,15.0,15.0,83,0.00,CLR,,0.00,WeatherDisplay:10.37,2013-01-14 16:54:00,
2013-01-14 10:59:00,29.0,24.5,30.41,NNW,348,6.9,6.9,83,0.00,CLR,,0.00,WeatherDisplay:10.37,2013-01-14 16:59:00,
2013-01-14 11:04:00,29.0,24.5,30.40,NW,314,10.4,10.4,83,0.00,CLR,,0.00,WeatherDisplay:10.37,2013-01-14 17:04:00,
2013-01-14 11:09:00,29.1,24.6,30.38,NNW,328,8.1,8.1,83,0.00,CLR,,0.00,WeatherDisplay:10.37,2013-01-14 17:09:00,
2013-01-14 11:14:00,29.3,24.8,30.38,NW,317,6.9,6.9,83,0.00,CLR,,0.00,WeatherDisplay:10.37,2013-01-14 17:14:00,
2013-01-14 11:19:00,29.3,24.8,30.37,NW,305,5.0,5.0,83,0.00,CLR,,0.00,WeatherDisplay:10.37,2013-01-14 17:19:00,
2013-01-14 11:24:00,29.3,24.8,30.40,North,5,5.8,5.8,83,0.00,CLR,,0.00,WeatherDisplay:10.37,2013-01-14 17:24:00,
2013-01-14 11:29:00,29.2,24.4,30.41,NNW,344,8.1,8.1,82,0.00,CLR,,0.00,WeatherDisplay:10.37,2013-01-14 17:29:00,
2013-01-14 11:34:00,29.1,24.3,30.40,NW,317,13.8,13.8,82,0.00,CLR,,0.00,WeatherDisplay:10.37,2013-01-14 17:34:00,
2013-01-14 11:39:00,29.0,23.9,30.40,WNW,282,12.7,12.7,81,0.00,CLR,,0.00,WeatherDisplay:10.37,2013-01-14 17:39:00,
2013-01-14 11:44:00,29.0,23.9,30.39,NW,311,11.5,11.5,81,0.00,CLR,,0.00,WeatherDisplay:10.37,2013-01-14 17:44:00,
2013-01-14 11:49:00,29.1,24.0,30.39,NNW,344,6.0,6.0,81,0.00,CLR,,0.00,WeatherDisplay:10.37,2013-01-14 17:49:00,
2013-01-14 11:54:00,29.3,24.2,30.38,NNW,335,12.7,12.7,81,0.00,CLR,,0.00,WeatherDisplay:10.37,2013-01-14 17:54:00,
2013-01-14 11:59:00,29.4,24.0,30.40,NNW,329,11.5,11.5,80,0.00,CLR,,0.00,WeatherDisplay:10.37,2013-01-14 17:59:00,
2013-01-14 12:04:00,29.4,24.0,30.41,NW,323,11.5,11.5,80,0.00,CLR,,0.00,WeatherDisplay:10.37,2013-01-14 18:04:00,
2013-01-14 12:09:00,29.5,23.8,30.40,NNW,332,3.5,3.5,79,0.00,CLR,,0.00,WeatherDisplay:10.37,2013-01-14 18:09:00,
2013-01-14 12:14:00,29.6,23.9,30.39,North,5,9.2,9.2,79,0.00,CLR,,0.00,WeatherDisplay:10.37,2013-01-14 18:14:00,
2013-01-14 12:19:00,29.6,23.9,30.38,NNW,338,16.1,16.1,79,0.00,CLR,,0.00,WeatherDisplay:10.37,2013-01-14 18:19:00,
2013-01-14 12:24:00,29.5,23.8,30.37,NNW,346,5.8,5.8,79,0.00,CLR,,0.00,WeatherDisplay:10.37,2013-01-14 18:24:00,
2013-01-14 12:29:00,29.6,24.2,30.37,North,355,12.7,12.7,80,0.00,CLR,,0.00,WeatherDisplay:10.37,2013-01-14 18:29:00,
2013-01-14 12:34:00,29.7,24.3,30.37,NW,315,4.0,4.0,80,0.00,CLR,,0.00,WeatherDisplay:10.37,2013-01-14 18:34:00,
2013-01-14 12:39:00,29.7,24.0,30.35,NW,319,6.9,6.9,79,0.00,CLR,,0.00,WeatherDisplay:10.37,2013-01-14 18:39:00,
2013-01-14 12:44:00,29.8,24.1,30.35,NNW,347,4.6,4.6,79,0.00,CLR,,0.00,WeatherDisplay:10.37,2013-01-14 18:44:00,
2013-01-14 12:49:00,29.9,24.2,30.36,NNW,340,5.8,5.8,79,0.00,CLR,,0.00,WeatherDisplay:10.37,2013-01-14 18:49:00,
2013-01-14 12:54:00,30.0,24.3,30.35,North,355,11.0,11.0,79,0.00,CLR,,0.00,WeatherDisplay:10.37,2013-01-14 18:54:00,
2013-01-14 12:59:00,30.1,24.4,30.34,North,355,5.8,5.8,79,0.00,CLR,,0.00,WeatherDisplay:10.37,2013-01-14 18:59:00,
2013-01-14 13:04:00,30.3,24.6,30.33,NNW,336,5.8,5.8,79,0.00,CLR,,0.00,WeatherDisplay:10.37,2013-01-14 19:04:00,
2013-01-14 13:09:00,30.4,25.0,30.33,WSW,246,3.5,3.5,80,0.00,CLR,,0.00,WeatherDisplay:10.37,2013-01-14 19:09:00,
2013-01-14 13:14:00,30.4,24.7,30.33,NNW,327,3.5,3.5,79,0.00,CLR,,0.00,WeatherDisplay:10.37,2013-01-14 19:14:00,
2013-01-14 13:19:00,30.4,24.7,30.33,North,360,3.5,3.5,79,0.00,CLR,,0.00,WeatherDisplay:10.37,2013-01-14 19:19:00,
2013-01-14 13:24:00,30.4,24.7,30.33,NNW,331,5.8,5.8,79,0.00,CLR,,0.00,WeatherDisplay:10.37,2013-01-14 19:24:00,
2013-01-14 13:29:00,30.5,24.8,30.33,NNW,344,10.0,10.0,79,0.00,CLR,,0.00,WeatherDisplay:10.37,2013-01-14 19:29:00,
2013-01-14 13:34:00,30.7,25.0,30.31,NNW,331,4.6,4.6,79,0.00,CLR,,0.00,WeatherDisplay:10.37,2013-01-14 19:34:00,
2013-01-14 13:39:00,30.7,24.7,30.31,North,355,4.6,4.6,78,0.00,CLR,,0.00,WeatherDisplay:10.37,2013-01-14 19:39:00,
2013-01-14 13:44:00,30.7,24.7,30.30,North,360,3.5,3.5,78,0.00,CLR,,0.00,WeatherDisplay:10.37,2013-01-14 19:44:00,
2013-01-14 13:49:00,30.8,25.1,30.32,North,351,5.0,5.0,79,0.00,CLR,,0.00,WeatherDisplay:10.37,2013-01-14 19:49:00,
2013-01-14 13:54:00,30.7,25.0,30.33,NNW,338,3.5,3.5,79,0.00,CLR,,0.00,WeatherDisplay:10.37,2013-01-14 19:54:00,
2013-01-14 13:59:00,30.5,24.8,30.30,NNW,344,4.6,4.6,79,0.00,CLR,,0.00,WeatherDisplay:10.37,2013-01-14 19:59:00,
2013-01-14 14:04:00,30.4,25.3,30.31,West,266,4.6,4.6,81,0.00,CLR,,0.00,WeatherDisplay:10.37,2013-01-14 20:04:00,
2013-01-14 14:09:00,30.4,25.6,30.29,SSW,205,1.1,1.1,82,0.00,CLR,,0.00,WeatherDisplay:10.37,2013-01-14 20:09:00,
2013-01-14 14:14:00,30.3,26.0,30.31,NW,309,5.8,5.8,84,0.00,CLR,,0.00,WeatherDisplay:10.37,2013-01-14 20:14:00,
2013-01-14 14:19:00,30.3,26.3,30.29,West,279,1.1,0.0,85,0.00,CLR,,0.00,WeatherDisplay:10.37,2013-01-14 20:19:00,
2013-01-14 14:24:00,30.2,26.2,30.29,NNW,328,2.3,2.3,85,0.00,CLR,,0.00,WeatherDisplay:10.37,2013-01-14 20:24:00,
2013-01-14 14:29:00,30.2,26.5,30.31,WNW,284,3.5,3.5,86,0.00,CLR,,0.00,WeatherDisplay:10.37,2013-01-14 20:29:00,
2013-01-14 14:34:00,30.1,26.4,30.31,WSW,257,2.3,2.3,86,0.00,CLR,,0.00,WeatherDisplay:10.37,2013-01-14 20:34:00,
2013-01-14 14:39:00,30.1,26.7,30.29,NNW,343,2.3,2.3,87,0.00,CLR,,0.00,WeatherDisplay:10.37,2013-01-14 20:39:00,
2013-01-14 14:44:00,30.1,26.7,30.29,East,79,2.3,2.3,87,0.00,CLR,,0.00,WeatherDisplay:10.37,2013-01-14 20:44:00,
2013-01-14 14:49:00,30.1,26.7,30.29,East,79,1.1,1.1,87,0.00,CLR,,0.00,WeatherDisplay:10.37,2013-01-14 20:49:00,
2013-01-14 14:54:00,30.1,27.0,30.31,NNW,333,4.6,4.6,88,0.00,CLR,,0.00,WeatherDisplay:10.37,2013-01-14 20:54:00,
2013-01-14 14:59:00,30.1,27.0,30.31,East,85,3.5,3.5,88,0.00,CLR,,0.00,WeatherDisplay:10.37,2013-01-14 20:59:00,
2013-01-14 15:04:00,30.2,27.1,30.31,NW,323,3.5,3.5,88,0.00,CLR,,0.00,WeatherDisplay:10.37,2013-01-14 21:04:00,
2013-01-14 15:09:00,30.2,27.1,30.32,NW,315,1.1,0.0,88,0.00,CLR,,0.00,WeatherDisplay:10.37,2013-01-14 21:09:00,
2013-01-14 15:14:00,30.3,27.2,30.33,NNW,336,3.5,3.5,88,0.00,CLR,,0.00,WeatherDisplay:10.37,2013-01-14 21:14:00,
2013-01-14 15:19:00,30.3,27.2,30.32,NW,315,3.5,3.5,88,0.00,CLR,,0.00,WeatherDisplay:10.37,2013-01-14 21:19:00,
2013-01-14 15:24:00,30.3,27.2,30.32,NNW,342,3.5,3.5,88,0.00,CLR,,0.00,WeatherDisplay:10.37,2013-01-14 21:24:00,
2013-01-14 15:29:00,30.3,27.2,30.33,North,350,2.0,2.0,88,0.00,CLR,,0.00,WeatherDisplay:10.37,2013-01-14 21:29:00,
2013-01-14 15:34:00,30.3,27.2,30.33,NNW,341,3.5,3.5,88,0.00,CLR,,0.00,WeatherDisplay:10.37,2013-01-14 21:34:00,
2013-01-14 15:39:00,30.3,27.4,30.33,NNW,342,0.0,0.0,89,0.00,CLR,,0.00,WeatherDisplay:10.37,2013-01-14 21:39:00,
2013-01-14 15:44:00,30.4,27.3,30.34,NNW,345,6.9,6.9,88,0.00,CLR,,0.00,WeatherDisplay:10.37,2013-01-14 21:44:00,
2013-01-14 15:49:00,30.5,27.6,30.33,NNW,331,1.1,1.1,89,0.00,CLR,,0.00,WeatherDisplay:10.37,2013-01-14 21:49:00,
2013-01-14 15:54:00,30.5,27.4,30.33,NNW,329,3.5,3.5,88,0.00,CLR,,0.00,WeatherDisplay:10.37,2013-01-14 21:54:00,
2013-01-14 15:59:00,30.6,27.5,30.33,NNW,343,2.3,0.0,88,0.00,CLR,,0.00,WeatherDisplay:10.37,2013-01-14 21:59:00,
2013-01-14 16:04:00,30.6,27.7,30.34,NNW,329,3.5,3.5,89,0.00,CLR,,0.00,WeatherDisplay:10.37,2013-01-14 22:04:00,
2013-01-14 16:09:00,30.6,27.5,30.34,North,350,2.3,2.5,88,0.00,CLR,,0.00,WeatherDisplay:10.37,2013-01-14 22:09:00,
2013-01-14 16:14:00,30.5,27.4,30.34,North,349,3.5,0.0,88,0.00,CLR,,0.00,WeatherDisplay:10.37,2013-01-14 22:14:00,
2013-01-14 16:19:00,30.4,27.3,30.33,ESE,118,2.0,2.0,88,0.00,CLR,,0.00,WeatherDisplay:10.37,2013-01-14 22:19:00,
2013-01-14 16:24:00,30.3,27.2,30.34,NNW,337,2.3,2.3,88,0.00,CLR,,0.00,WeatherDisplay:10.37,2013-01-14 22:24:00,
2013-01-14 16:30:00,30.4,27.5,30.34,NNW,344,1.1,1.1,89,0.00,CLR,,0.00,WeatherDisplay:10.37,2013-01-14 22:30:00,
2013-01-14 16:35:00,30.5,27.4,30.34,NNW,344,0.0,0.0,88,0.00,CLR,,0.00,WeatherDisplay:10.37,2013-01-14 22:35:00,
2013-01-14 16:40:00,30.4,27.3,30.33,NNW,340,4.6,4.6,88,0.00,CLR,,0.00,WeatherDisplay:10.37,2013-01-14 22:40:00,
2013-01-14 16:45:00,30.3,27.2,30.34,South,184,1.1,0.0,88,0.00,CLR,,0.00,WeatherDisplay:10.37,2013-01-14 22:45:00,
2013-01-14 16:50:00,30.3,27.2,30.33,South,186,2.3,0.0,88,0.00,CLR,,0.00,WeatherDisplay:10.37,2013-01-14 22:50:00,
2013-01-14 16:55:00,30.4,27.5,30.34,NNW,338,1.1,1.1,89,0.00,CLR,,0.00,WeatherDisplay:10.37,2013-01-14 22:55:00,
2013-01-14 17:00:00,30.3,27.2,30.33,NNW,336,2.3,2.3,88,0.00,CLR,,0.00,WeatherDisplay:10.37,2013-01-14 23:00:00,
2013-01-14 17:05:00,30.2,27.1,30.33,WNW,293,2.3,0.0,88,0.00,CLR,,0.00,WeatherDisplay:10.37,2013-01-14 23:05:00,
2013-01-14 17:10:00,30.0,26.9,30.34,NNW,327,2.3,2.3,88,0.00,CLR,,0.00,WeatherDisplay:10.37,2013-01-14 23:10:00,
2013-01-14 17:15:00,29.9,26.8,30.34,NNW,327,1.0,0.0,88,0.00,CLR,,0.00,WeatherDisplay:10.37,2013-01-14 23:15:00,
2013-01-14 17:20:00,29.8,26.7,30.34,NNW,327,0.0,0.0,88,0.00,CLR,,0.00,WeatherDisplay:10.37,2013-01-14 23:20:00,
2013-01-14 17:25:00,29.7,26.6,30.34,NNW,327,1.1,1.1,88,0.00,CLR,,0.00,WeatherDisplay:10.37,2013-01-14 23:25:00,
2013-01-14 17:30:00,29.7,26.6,30.33,North,350,1.1,1.8,88,0.00,CLR,,0.00,WeatherDisplay:10.37,2013-01-14 23:30:00,
2013-01-14 17:35:00,29.6,26.5,30.33,NNW,342,2.3,0.0,88,0.00,CLR,,0.00,WeatherDisplay:10.37,2013-01-14 23:35:00,
2013-01-14 17:40:00,29.5,26.4,30.34,NNW,342,1.0,0.0,88,0.00,CLR,,0.00,WeatherDisplay:10.37,2013-01-14 23:40:00,
2013-01-14 17:45:00,29.4,26.3,30.34,NNW,342,0.0,0.0,88,0.00,CLR,,0.00,WeatherDisplay:10.37,2013-01-14 23:45:00,
2013-01-14 17:50:00,29.4,26.3,30.33,NNW,342,0.0,0.0,88,0.00,CLR,,0.00,WeatherDisplay:10.37,2013-01-14 23:50:00,
2013-01-14 17:55:00,29.3,26.2,30.33,NNW,342,0.0,0.0,88,0.00,CLR,,0.00,WeatherDisplay:10.37,2013-01-14 23:55:00,
2013-01-14 18:00:00,29.3,26.2,30.33,NNW,336,1.0,0.0,88,0.00,CLR,,0.00,WeatherDisplay:10.37,2013-01-15 00:00:00,
2013-01-14 18:05:00,29.2,26.1,30.33,NNW,338,1.1,1.1,88,0.00,CLR,,0.00,WeatherDisplay:10.37,2013-01-15 00:05:00,
2013-01-14 18:10:00,29.2,26.1,30.33,NNW,336,1.1,1.1,88,0.00,CLR,,0.00,WeatherDisplay:10.37,2013-01-15 00:10:00,
2013-01-14 18:15:00,29.2,26.1,30.33,NNW,337,0.0,0.0,88,0.00,CLR,,0.00,WeatherDisplay:10.37,2013-01-15 00:15:00,
2013-01-14 18:20:00,29.2,26.1,30.33,NNW,338,0.0,0.0,88,0.00,CLR,,0.00,WeatherDisplay:10.37,2013-01-15 00:20:00,
2013-01-14 18:25:00,29.2,26.1,30.33,NNW,338,0.0,0.0,88,0.00,CLR,,0.00,WeatherDisplay:10.37,2013-01-15 00:25:00,
2013-01-14 18:30:00,29.2,26.1,30.33,NNW,338,1.1,1.1,88,0.00,CLR,,0.00,WeatherDisplay:10.37,2013-01-15 00:30:00,
2013-01-14 18:35:00,29.1,26.0,30.33,NNW,336,2.3,0.0,88,0.00,CLR,,0.00,WeatherDisplay:10.37,2013-01-15 00:35:00,
2013-01-14 18:40:00,29.1,26.0,30.33,NNW,338,1.1,1.1,88,0.00,CLR,,0.00,WeatherDisplay:10.37,2013-01-15 00:40:00,
2013-01-14 18:45:00,29.1,26.0,30.33,NNW,338,0.0,0.0,88,0.00,CLR,,0.00,WeatherDisplay:10.37,2013-01-15 00:45:00,
2013-01-14 18:50:00,29.1,26.0,30.32,NNW,337,0.0,0.0,88,0.00,CLR,,0.00,WeatherDisplay:10.37,2013-01-15 00:50:00,
2013-01-14 18:55:00,29.0,25.9,30.32,NNW,338,0.0,0.0,88,0.00,CLR,,0.00,WeatherDisplay:10.37,2013-01-15 00:55:00,
2013-01-14 19:00:00,29.0,25.9,30.32,NNW,338,1.1,0.0,88,0.00,CLR,,0.00,WeatherDisplay:10.37,2013-01-15 01:00:00,
2013-01-14 19:05:00,29.0,25.9,30.32,NNW,342,1.1,1.1,88,0.00,CLR,,0.00,WeatherDisplay:10.37,2013-01-15 01:05:00,
2013-01-14 19:10:00,29.0,25.9,30.32,NNW,342,0.0,0.6,88,0.00,CLR,,0.00,WeatherDisplay:10.37,2013-01-15 01:10:00,
2013-01-14 19:15:00,29.0,25.9,30.32,NNW,342,3.5,3.5,88,0.00,CLR,,0.00,WeatherDisplay:10.37,2013-01-15 01:15:00,
2013-01-14 19:20:00,28.9,25.8,30.32,NNW,340,0.0,0.0,88,0.00,CLR,,0.00,WeatherDisplay:10.37,2013-01-15 01:20:00,
2013-01-14 19:25:00,28.9,25.8,30.32,NW,321,2.3,2.3,88,0.00,CLR,,0.00,WeatherDisplay:10.37,2013-01-15 01:25:00,
2013-01-14 19:30:00,28.9,25.8,30.32,NNW,330,0.0,0.0,88,0.00,CLR,,0.00,WeatherDisplay:10.37,2013-01-15 01:30:00,
2013-01-14 19:35:00,29.0,25.9,30.31,NNW,331,2.3,2.3,88,0.00,CLR,,0.00,WeatherDisplay:10.37,2013-01-15 01:35:00,
2013-01-14 19:40:00,28.9,25.6,30.31,NNW,333,1.0,0.0,87,0.00,CLR,,0.00,WeatherDisplay:10.37,2013-01-15 01:40:00,
2013-01-14 19:45:00,28.9,25.5,30.31,NNW,347,3.5,3.5,87,0.00,CLR,,0.00,WeatherDisplay:10.37,2013-01-15 01:45:00,
2013-01-14 19:50:00,28.9,25.5,30.31,NNW,344,1.1,1.1,87,0.00,CLR,,0.00,WeatherDisplay:10.37,2013-01-15 01:50:00,
2013-01-14 19:55:00,28.9,25.5,30.31,West,279,1.0,0.0,87,0.00,CLR,,0.00,WeatherDisplay:10.37,2013-01-15 01:55:00,
2013-01-14 20:00:00,28.9,25.5,30.31,North,355,2.3,2.3,87,0.00,CLR,,0.00,WeatherDisplay:10.37,2013-01-15 02:00:00,
2013-01-14 20:05:00,28.9,25.5,30.31,NNW,336,2.0,0.0,87,0.00,CLR,,0.00,WeatherDisplay:10.37,2013-01-15 02:05:00,
2013-01-14 20:10:00,28.9,25.5,30.31,NNW,340,2.3,2.3,87,0.00,CLR,,0.00,WeatherDisplay:10.37,2013-01-15 02:10:00,
2013-01-14 20:15:00,28.9,25.5,30.30,NNW,347,0.0,0.2,87,0.00,CLR,,0.00,WeatherDisplay:10.37,2013-01-15 02:15:00,
2013-01-14 20:20:00,28.9,25.5,30.31,NNW,341,2.3,0.0,87,0.00,CLR,,0.00,WeatherDisplay:10.37,2013-01-15 02:20:00,
2013-01-14 20:25:00,28.9,25.5,30.31,NNW,340,1.1,0.0,87,0.00,CLR,,0.00,WeatherDisplay:10.37,2013-01-15 02:25:00,
2013-01-14 20:30:00,28.9,25.5,30.30,NNW,342,0.0,0.0,87,0.00,CLR,,0.00,WeatherDisplay:10.37,2013-01-15 02:30:00,
2013-01-14 20:35:00,28.9,25.5,30.30,North,349,1.0,0.0,87,0.00,CLR,,0.00,WeatherDisplay:10.37,2013-01-15 02:35:00,
2013-01-14 20:40:00,28.8,25.4,30.30,North,349,2.3,2.3,87,0.00,CLR,,0.00,WeatherDisplay:10.37,2013-01-15 02:40:00,
2013-01-14 20:45:00,28.8,25.4,30.30,NNW,346,1.1,1.1,87,0.00,CLR,,0.00,WeatherDisplay:10.37,2013-01-15 02:45:00,
2013-01-14 20:50:00,28.8,25.4,30.30,NNW,340,0.0,0.0,87,0.00,CLR,,0.00,WeatherDisplay:10.37,2013-01-15 02:50:00,
2013-01-14 20:55:00,28.8,25.4,30.29,NNW,344,3.5,3.5,87,0.00,CLR,,0.00,WeatherDisplay:10.37,2013-01-15 02:55:00,
2013-01-14 21:00:00,28.8,25.4,30.29,NNW,348,2.3,2.3,87,0.00,CLR,,0.00,WeatherDisplay:10.37,2013-01-15 03:00:00,
2013-01-14 21:05:00,28.7,25.3,30.29,NNW,348,2.3,2.3,87,0.00,CLR,,0.00,WeatherDisplay:10.37,2013-01-15 03:05:00,
2013-01-14 21:10:00,28.7,25.3,30.29,NNW,342,1.0,0.0,87,0.00,CLR,,0.00,WeatherDisplay:10.37,2013-01-15 03:10:00,
2013-01-14 21:15:00,28.7,25.3,30.29,North,355,2.3,0.0,87,0.00,CLR,,0.00,WeatherDisplay:10.37,2013-01-15 03:15:00,
2013-01-14 21:20:00,28.7,25.3,30.29,North,5,3.0,3.0,87,0.00,CLR,,0.00,WeatherDisplay:10.37,2013-01-15 03:20:00,
2013-01-14 21:25:00,28.7,25.3,30.29,NNW,348,1.1,0.0,87,0.00,CLR,,0.00,WeatherDisplay:10.37,2013-01-15 03:25:00,
2013-01-14 21:30:00,28.7,25.3,30.29,North,350,1.1,1.1,87,0.00,CLR,,0.00,WeatherDisplay:10.37,2013-01-15 03:30:00,
2013-01-14 21:35:00,28.7,25.3,30.29,NNW,331,3.5,3.5,87,0.00,CLR,,0.00,WeatherDisplay:10.37,2013-01-15 03:35:00,
2013-01-14 21:40:00,28.7,25.3,30.28,NNW,333,0.0,0.0,87,0.00,CLR,,0.00,WeatherDisplay:10.37,2013-01-15 03:40:00,
2013-01-14 21:45:00,28.7,25.3,30.28,NNW,338,2.0,0.0,87,0.00,CLR,,0.00,WeatherDisplay:10.37,2013-01-15 03:45:00,
2013-01-14 21:50:00,28.7,25.3,30.27,NNW,343,0.0,0.0,87,0.00,CLR,,0.00,WeatherDisplay:10.37,2013-01-15 03:50:00,
2013-01-14 21:55:00,28.7,25.3,30.27,NNW,344,1.0,0.0,87,0.00,CLR,,0.00,WeatherDisplay:10.37,2013-01-15 03:55:00,
2013-01-14 22:00:00,28.7,25.3,30.27,NNW,346,5.8,5.8,87,0.00,CLR,,0.00,WeatherDisplay:10.37,2013-01-15 04:00:00,
2013-01-14 22:05:00,28.6,25.2,30.27,NNW,348,3.5,3.5,87,0.00,CLR,,0.00,WeatherDisplay:10.37,2013-01-15 04:05:00,
2013-01-14 22:10:00,28.6,25.2,30.28,NNW,333,3.5,3.5,87,0.00,CLR,,0.00,WeatherDisplay:10.37,2013-01-15 04:10:00,
2013-01-14 22:15:00,28.6,25.2,30.28,NW,324,2.3,2.3,87,0.00,CLR,,0.00,WeatherDisplay:10.37,2013-01-15 04:15:00,
2013-01-14 22:20:00,28.5,25.1,30.28,North,355,1.1,1.1,87,0.00,CLR,,0.00,WeatherDisplay:10.37,2013-01-15 04:20:00,
2013-01-14 22:25:00,28.5,25.2,30.28,NNW,347,2.0,0.0,87,0.00,CLR,,0.00,WeatherDisplay:10.37,2013-01-15 04:25:00,
2013-01-14 22:30:00,28.5,25.1,30.28,NNW,341,2.0,0.0,87,0.00,CLR,,0.00,WeatherDisplay:10.37,2013-01-15 04:30:00,
2013-01-14 22:35:00,28.5,24.8,30.28,NNW,345,1.0,0.0,86,0.00,CLR,,0.00,WeatherDisplay:10.37,2013-01-15 04:35:00,
2013-01-14 22:40:00,28.4,24.7,30.28,NNW,344,4.6,4.6,86,0.00,CLR,,0.00,WeatherDisplay:10.37,2013-01-15 04:40:00,
2013-01-14 22:45:00,28.4,25.0,30.28,NW,323,2.3,2.3,87,0.00,CLR,,0.00,WeatherDisplay:10.37,2013-01-15 04:45:00,
2013-01-14 22:50:00,28.4,25.0,30.29,NNW,347,4.6,4.6,87,0.00,CLR,,0.00,WeatherDisplay:10.37,2013-01-15 04:50:00,
2013-01-14 22:55:00,28.4,25.0,30.28,NNW,344,6.0,6.0,87,0.00,CLR,,0.00,WeatherDisplay:10.37,2013-01-15 04:55:00,
2013-01-14 23:00:00,28.3,24.9,30.28,NNW,338,3.5,3.5,87,0.00,CLR,,0.00,WeatherDisplay:10.37,2013-01-15 05:00:00,
2013-01-14 23:02:00,28.3,24.9,30.28,North,350,3.5,3.5,87,0.00,CLR,,0.00,WeatherDisplay:10.37,2013-01-15 05:02:00,
2013-01-14 23:07:00,28.3,24.9,30.29,NNW,344,3.5,3.5,87,0.00,CLR,,0.00,WeatherDisplay:10.37,2013-01-15 05:07:00,
2013-01-14 23:12:00,28.3,24.9,30.29,NNW,346,3.5,3.5,87,0.00,CLR,,0.00,WeatherDisplay:10.37,2013-01-15 05:12:00,
2013-01-14 23:17:00,28.2,24.8,30.29,NNW,340,3.5,3.5,87,0.00,CLR,,0.00,WeatherDisplay:10.37,2013-01-15 05:17:00,
2013-01-14 23:22:00,28.2,24.8,30.29,NNW,339,0.0,0.0,87,0.00,CLR,,0.00,WeatherDisplay:10.37,2013-01-15 05:22:00,
2013-01-14 23:27:00,28.1,24.7,30.29,NNW,347,2.3,2.3,87,0.00,CLR,,0.00,WeatherDisplay:10.37,2013-01-15 05:27:00,
2013-01-14 23:32:00,28.1,24.7,30.29,NNW,338,1.1,0.0,87,0.00,CLR,,0.00,WeatherDisplay:10.37,2013-01-15 05:32:00,
2013-01-14 23:37:00,28.1,24.7,30.29,North,355,2.3,2.3,87,0.00,CLR,,0.00,WeatherDisplay:10.37,2013-01-15 05:37:00,
2013-01-14 23:42:00,28.1,24.7,30.28,North,355,4.0,4.0,87,0.00,CLR,,0.00,WeatherDisplay:10.37,2013-01-15 05:42:00,
2013-01-14 23:47:00,28.0,24.4,30.29,North,349,2.3,2.3,86,0.00,CLR,,0.00,WeatherDisplay:10.37,2013-01-15 05:47:00,
2013-01-14 23:52:00,28.0,24.4,30.29,North,355,2.3,2.3,86,0.00,CLR,,0.00,WeatherDisplay:10.37,2013-01-15 05:52:00,
2013-01-14 23:57:00,27.9,24.3,30.29,North,355,3.5,3.5,86,0.00,CLR,,0.00,WeatherDisplay:10.37,2013-01-15 05:57:00,